Probability
0 0 0 0 0 0 0 0 3 0 0 0 3 3 0 0 0 0 0 0 0 0 0 0 0 0 0 0 0 0 0 0 0 0 0 0 0 0 0 0 0 0 0
0 0 0 0 0 0 0 0 0 0 0 0 0 0 0 0 0 0 0 0 0 0 0 0 0 0 0 0 0 0 0 0 0 0 0 0 0 0 0 0 0 0 0
0 0 0 0 0 0 0 0 0 0 0 0 0 0 0 0 0 0 0 0 0 0 0 0 0 0 0 0 0 0 0 0 0 0 0 0 0 0 0 0 0 0 0
0 0 0 0 0 0 0 0 0 0 0 0 0 0 0 0 0 0 0 0 0 0 0 0 0 0 0 0 0 0 0 0 0 0 0 0 0 0 0 0 0 0 0
0 0 0 0 0 0 0 0 0 0 0 0 0 0 0 0 0 0 0 0 0 0 0 0 0 0 0 0 0 0 0 0 0 0 0 0 0 0 0 0 0 0 0
0 0 0 0 0 0 0 0 0 0 0 0 0 0 0 0 0 0 0 0 0 0 0 0 0 0 0 0 0 0 0 0 0 0 0 0 0 0 0 0 0 0 0
0 0 0 0 0 0 0 0 0 0 0 0 0 0 0 0 0 0 0 0 0 0 0 0 0 0 0 0 0 0 0 0 0 0 0 0 0 0 0 0 0 0 0
0 0 0 0 0 0 0 0 0 0 0 0 0 0 0 0 0 0 0 0 0 0 0 0 0 0 0 0 0 0 0 0 0 0 0 0 0 0 0 0 0 0 0
0 0 0 0 0 0 0 0 0 0 0 0 0 0 0 0 0 0 0 0 0 0 0 0 0 0 0 0 0 0 0 0 0 0 0 0 0 0 0 0 0 0 0
0 0 0 0 0 0 0 0 0 0 0 0 0 0 0 0 0 0 0 0 0 0 0 0 0 0 0 0 0 0 0 0 0 0 0 0 0 0 0 0 0 0 0
0 0 0 0 0 0 0 0 0 0 0 0 0 0 0 0 0 0 0 0 0 0 0 0 0 0 0 0 0 0 0 0 0 0 0 0 0 0 0 0 0 0 0
0 0 0 0 0 0 0 0 0 0 0 0 0 0 0 0 0 0 0 0 0 0 0 0 0 0 0 0 0 0 0 0 0 0 0 0 0 0 0 0 0 0 0
0 0 0 0 0 0 0 0 0 0 0 0 0 0 0 0 0 0 0 0 0 0 0 0 0 0 0 0 0 0 0 0 0 0 0 0 0 0 0 0 0 0 0
0 0 0 0 0 0 0 0 0 0 0 0 0 0 0 0 0 0 0 0 0 0 0 0 0 0 0 0 0 0 0 0 0 0 0 0 0 0 0 0 0 0 0
0 0 0 0 0 0 0 0 0 0 0 0 0 0 0 0 0 0 0 0 0 0 0 0 0 0 0 0 0 0 0 0 0 0 0 0 0 0 0 0 0 0 0
0 0 0 0 0 0 0 0 0 0 0 0 0 0 0 0 0 0 0 0 0 0 0 0 0 0 0 0 0 0 0 0 0 0 0 0 0 0 0 0 0 0 0
0 0 0 0 0 0 0 0 0 0 0 0 0 0 0 0 0 0 0 0 0 0 0 0 0 0 0 0 0 0 0 0 0 0 0 0 0 0 0 0 0 0 0
0 0 0 0 0 0 0 0 0 0 0 0 0 0 0 0 0 0 0 0 0 0 0 0 0 0 0 0 0 0 0 0 0 0 0 0 0 0 0 0 0 0 0
0 0 0 0 0 0 0 0 0 0 0 0 0 0 0 0 0 0 0 0 0 0 0 0 0 0 0 0 0 0 0 0 0 0 0 0 0 0 0 0 0 0 0
0 0 0 0 0 0 0 0 0 0 0 0 0 0 0 0 0 0 0 0 0 0 0 0 0 0 0 0 0 0 0 0 0 0 0 0 0 0 0 0 0 0 0
0 0 0 0 0 0 0 0 0 0 0 0 0 0 0 0 0 0 0 0 0 0 0 0 0 0 0 0 0 0 0 0 0 0 0 0 0 0 0 0 0 0 0
0 0 0 0 0 0 0 0 0 0 0 0 0 0 0 0 0 0 0 0 0 0 0 0 0 0 0 0 0 0 0 0 0 0 0 0 0 0 0 0 0 0 0
0 0 0 0 0 0 0 0 0 0 0 0 0 0 0 0 0 0 0 0 0 0 0 0 0 0 0 0 0 0 0 0 0 0 0 0 0 0 0 0 0 0 0
0 0 0 0 0 0 0 0 0 0 0 0 0 0 0 0 0 0 0 0 0 0 0 0 0 0 0 0 0 0 0 0 0 0 0 0 0 0 0 0 0 0 0
0 0 0 0 0 0 0 0 0 0 0 0 0 0 0 0 0 0 0 0 0 0 0 0 0 0 0 0 0 0 0 0 0 0 0 0 0 0 0 0 0 0 0
0 0 0 0 0 0 0 0 0 0 0 0 0 0 0 0 0 0 0 0 0 0 0 0 0 0 0 0 0 0 0 0 0 0 0 0 0 0 0 0 0 0 0
Height
5685 5685 5687 5688 5690 5692 5694 5696 5699 5701 5704 5707 5709 5712 5715 5718 5721 5724 5727 5730 5733 5736 5738 5741 5743 5745 5747 5749 5751 5753 5755 5757 5758 5760 5761 5763 5764 5765 5766 5767 5768 5769 5771
5673 5674 5675 5676 5678 5680 5683 5685 5687 5689 5692 5694 5697 5700 5703 5706 5709 5712 5715 5718 5722 5724 5727 5730 5732 5734 5736 5739 5740 5742 5744 5746 5748 5749 5751 5752 5754 5755 5756 5757 5759 5760 5761
5662 5663 5664 5665 5667 5669 5671 5673 5675 5678 5680 5682 5685 5688 5691 5694 5697 5700 5703 5706 5709 5712 5715 5718 5720 5722 5725 5727 5729 5731 5733 5735 5736 5738 5740 5742 5743 5745 5746 5747 5749 5750 5751
5651 5652 5653 5654 5656 5657 5659 5661 5663 5665 5668 5670 5672 5675 5678 5681 5685 5687 5690 5693 5696 5700 5702 5705 5708 5710 5712 5714 5717 5719 5721 5722 5724 5726 5728 5730 5732 5734 5736 5737 5738 5739 5740
5641 5641 5642 5644 5645 5646 5648 5649 5651 5653 5656 5658 5660 5662 5665 5668 5671 5674 5677 5680 5683 5686 5689 5692 5695 5697 5699 5702 5704 5706 5708 5710 5712 5714 5715 5717 5719 5721 5723 5725 5727 5727 5728
5630 5630 5631 5632 5633 5634 5636 5637 5639 5641 5643 5645 5647 5649 5652 5654 5657 5660 5663 5666 5669 5673 5676 5678 5681 5683 5686 5688 5690 5693 5695 5697 5698 5700 5702 5704 5706 5708 5710 5712 5714 5715 5716
5619 5619 5620 5621 5622 5622 5623 5625 5626 5628 5630 5632 5634 5636 5638 5640 5643 5646 5649 5653 5656 5658 5661 5664 5667 5669 5671 5674 5676 5678 5681 5682 5684 5686 5688 5690 5692 5694 5696 5698 5700 5701 5703
5607 5608 5608 5609 5609 5610 5611 5612 5613 5615 5617 5619 5621 5623 5625 5627 5629 5632 5635 5638 5641 5644 5646 5649 5652 5654 5657 5659 5661 5664 5666 5668 5670 5672 5674 5676 5677 5679 5681 5683 5685 5687 5689
5596 5596 5596 5597 5597 5597 5598 5599 5600 5602 5603 5605 5607 5609 5611 5613 5615 5617 5620 5623 5625 5628 5631 5634 5636 5639 5641 5644 5646 5649 5651 5653 5655 5657 5659 5661 5662 5664 5666 5667 5669 5671 5674
5585 5585 5585 5585 5585 5585 5585 5586 5587 5588 5590 5591 5593 5595 5596 5598 5600 5602 5604 5607 5609 5612 5615 5617 5620 5623 5625 5628 5630 5633 5635 5637 5639 5641 5644 5645 5647 5648 5650 5651 5653 5655 5657
5574 5573 5573 5572 5572 5572 5572 5573 5574 5575 5576 5577 5578 5580 5581 5583 5585 5587 5589 5591 5593 5595 5598 5601 5603 5606 5609 5611 5613 5616 5618 5621 5623 5625 5627 5629 5630 5632 5634 5635 5637 5638 5640
5563 5562 5561 5560 5560 5560 5560 5560 5560 5561 5561 5562 5563 5565 5566 5567 5569 5570 5572 5574 5576 5578 5580 5583 5586 5589 5591 5593 5596 5599 5601 5604 5606 5608 5610 5612 5613 5615 5617 5618 5620 5621 5623
5551 5550 5549 5548 5548 5547 5547 5547 5547 5547 5547 5548 5548 5549 5550 5551 5552 5554 5555 5557 5559 5561 5563 5565 5568 5571 5574 5576 5578 5580 5583 5585 5588 5590 5592 5594 5596 5598 5599 5601 5602 5604 5605
5540 5539 5537 5536 5535 5535 5534 5534 5533 5533 5533 5533 5533 5534 5534 5535 5536 5537 5538 5540 5541 5543 5545 5547 5550 5552 5555 5557 5559 5562 5564 5567 5570 5572 5574 5576 5578 5580 5581 5583 5584 5585 5587
5529 5527 5526 5525 5523 5522 5521 5520 5520 5519 5519 5518 5518 5518 5518 5519 5519 5520 5521 5522 5524 5525 5527 5529 5531 5534 5536 5539 5541 5543 5545 5548 5551 5553 5555 5557 5559 5561 5562 5564 5565 5566 5568
5517 5515 5514 5512 5511 5509 5508 5507 5506 5505 5504 5504 5503 5503 5503 5503 5503 5504 5504 5506 5507 5508 5509 5511 5513 5515 5518 5520 5522 5524 5527 5529 5532 5534 5536 5538 5540 5542 5543 5545 5546 5548 5549
5505 5503 5502 5500 5498 5497 5495 5494 5492 5491 5490 5489 5488 5488 5487 5487 5487 5488 5488 5489 5490 5491 5492 5493 5495 5497 5500 5502 5503 5505 5508 5510 5513 5515 5518 5519 5521 5523 5524 5526 5527 5529 5530
5493 5491 5489 5487 5486 5484 5482 5481 5479 5478 5476 5475 5474 5473 5473 5472 5472 5472 5472 5473 5473 5474 5475 5476 5478 5480 5482 5484 5485 5487 5489 5492 5494 5497 5499 5501 5503 5504 5505 5507 5509 5511 5512
5481 5479 5477 5475 5473 5471 5469 5468 5466 5464 5463 5461 5460 5459 5458 5458 5457 5457 5457 5457 5457 5458 5458 5459 5461 5463 5465 5467 5468 5469 5471 5474 5477 5479 5480 5482 5484 5486 5487 5488 5491 5493 5494
5469 5467 5465 5463 5461 5459 5456 5455 5453 5451 5449 5448 5446 5445 5444 5443 5443 5442 5442 5441 5441 5442 5442 5443 5444 5446 5449 5450 5451 5452 5454 5457 5460 5461 5462 5464 5466 5467 5468 5469 5471 5474 5476
5458 5455 5453 5450 5448 5446 5444 5442 5440 5438 5436 5434 5433 5432 5430 5429 5429 5428 5427 5427 5426 5427 5427 5428 5429 5430 5432 5433 5434 5435 5436 5439 5441 5443 5445 5446 5447 5448 5450 5451 5453 5455 5457
5446 5443 5441 5438 5436 5433 5431 5429 5427 5425 5423 5421 5420 5418 5417 5415 5414 5414 5413 5412 5412 5411 5412 5412 5413 5414 5415 5416 5418 5418 5419 5421 5423 5425 5427 5428 5429 5430 5431 5432 5434 5436 5437
5434 5431 5428 5426 5423 5421 5418 5416 5414 5412 5410 5408 5407 5405 5403 5402 5401 5400 5399 5398 5397 5397 5397 5397 5398 5399 5400 5401 5401 5402 5402 5403 5405 5407 5409 5410 5411 5412 5413 5414 5416 5417 5418
5422 5419 5416 5414 5411 5408 5406 5404 5402 5400 5398 5396 5394 5392 5390 5389 5387 5386 5385 5384 5383 5382 5382 5382 5383 5384 5385 5385 5385 5386 5386 5387 5387 5389 5390 5391 5392 5393 5395 5396 5397 5398 5400
5410 5407 5404 5401 5399 5396 5394 5392 5390 5388 5386 5383 5381 5379 5377 5376 5374 5373 5371 5370 5369 5368 5368 5368 5369 5370 5371 5370 5370 5370 5370 5370 5371 5371 5372 5373 5374 5376 5377 5378 5380 5381 5383
5398 5395 5392 5389 5387 5384 5382 5380 5378 5376 5373 5371 5369 5367 5365 5363 5362 5360 5359 5357 5356 5355 5354 5354 5355 5356 5356 5356 5355 5355 5355 5355 5355 5355 5356 5357 5358 5359 5360 5361 5363 5364 5366
Wind_Speed
42 42 43 43 44 44 44 45 45 46 47 47 47 47 47 47 47 47 47 47 46 46 46 46 44 45 44 43 42 42 42 42 42 42 42 42 41 41 40 39 38 37 37
42 42 43 42 43 44 45 45 46 46 46 47 47 48 49 49 49 49 49 49 49 49 49 49 48 48 47 46 45 44 44 44 44 44 44 44 43 42 42 41 41 40 40
41 42 43 43 43 43 44 45 46 47 47 47 48 48 49 50 50 51 51 51 51 51 50 50 50 50 50 49 48 47 47 47 47 46 46 46 45 44 43 43 43 43 43
41 42 43 43 43 43 43 44 46 47 48 48 49 49 50 50 51 52 52 53 53 52 52 52 52 51 51 50 50 49 48 48 48 48 48 48 47 46 45 45 46 46 46
40 42 42 43 43 44 44 44 45 47 47 48 49 50 51 51 52 52 53 53 53 53 53 54 53 53 52 52 52 52 51 50 50 50 50 49 49 49 49 48 48 49 49
39 40 41 42 43 44 45 46 46 47 48 48 49 50 51 52 52 53 53 54 54 55 55 55 54 54 54 54 54 53 53 53 53 52 52 52 52 52 52 51 51 51 50
37 39 40 41 42 43 45 46 47 48 48 49 50 50 51 52 52 53 54 54 55 55 56 56 56 56 56 57 56 55 55 55 55 54 54 54 55 55 54 54 54 53 53
37 38 39 41 43 44 44 45 47 48 49 50 51 51 51 52 53 54 55 55 56 56 57 58 58 59 58 58 58 57 57 56 56 56 56 56 57 57 56 56 56 55 54
38 39 40 41 41 43 44 45 46 48 49 50 51 52 53 53 54 55 56 57 57 58 59 59 59 60 60 60 59 59 59 59 58 58 57 57 58 58 58 58 58 58 57
38 40 41 42 42 43 44 45 46 48 49 51 52 53 54 54 55 56 57 58 59 60 60 61 61 61 62 62 62 61 60 60 60 59 60 59 59 59 60 60 60 60 60
37 38 40 41 42 44 45 46 47 48 49 51 53 54 55 56 57 57 58 59 60 61 62 62 63 63 63 63 64 63 63 63 62 61 61 61 61 61 61 62 62 62 62
38 38 39 40 41 43 44 45 46 47 48 50 52 53 55 57 57 58 58 58 60 61 62 63 63 63 64 64 65 65 64 65 65 64 64 63 63 63 63 63 64 64 64
38 38 39 40 41 42 44 45 45 46 47 48 50 52 54 56 57 58 58 59 60 61 62 64 64 64 64 64 65 66 66 66 65 65 65 65 65 64 64 65 65 66 66
38 38 39 40 41 42 44 45 45 46 47 48 50 51 53 54 56 58 59 59 59 60 61 62 63 63 64 65 65 66 67 66 66 65 65 65 66 66 66 66 67 67 67
37 37 38 39 40 41 42 43 44 46 47 48 49 50 52 53 54 56 58 59 59 59 61 62 63 63 64 64 64 65 66 66 65 65 65 66 66 67 67 67 67 67 66
36 36 37 38 39 40 41 42 44 45 46 47 48 49 50 51 52 53 55 56 57 58 59 60 61 62 63 64 64 65 66 66 66 66 66 66 66 65 65 65 66 66 66
37 37 37 38 38 39 40 41 43 44 45 46 46 47 47 48 50 51 53 54 55 56 57 58 59 60 60 62 63 64 64 65 65 65 65 64 65 64 65 65 65 64 64
38 38 38 38 39 40 40 41 42 43 44 45 45 46 47 47 48 49 50 52 53 54 55 56 57 58 59 60 61 61 62 63 63 64 63 64 64 64 63 64 65 65 64
38 38 38 39 39 40 41 42 42 42 43 44 45 46 46 47 47 48 49 50 51 52 54 55 55 56 56 57 58 59 60 61 62 62 63 63 63 63 63 64 65 64 64
37 38 38 39 39 40 41 42 43 43 44 44 44 45 45 46 46 46 47 48 49 51 52 53 54 55 55 56 56 57 58 60 60 60 61 61 61 61 62 63 63 64 63
38 38 39 39 40 41 41 41 42 42 43 43 43 44 45 45 45 45 46 47 48 49 50 51 52 52 53 54 55 55 57 58 58 58 58 59 60 60 61 62 62 62 62
39 39 39 40 41 41 41 41 41 41 41 41 42 42 43 43 44 45 45 46 46 47 48 49 50 51 51 52 54 55 55 56 57 57 57 58 58 59 60 60 61 61 61
39 39 39 39 40 40 40 40 40 40 40 40 41 42 42 42 44 44 45 45 45 46 47 48 48 49 50 50 52 53 54 55 56 57 57 57 57 58 58 59 59 60 61
38 38 38 38 39 39 38 38 38 38 39 40 41 41 41 42 43 44 45 45 45 45 46 46 47 47 48 49 50 52 53 54 55 56 56 56 57 57 58 58 58 59 59
37 38 38 38 38 38 38 38 37 37 38 38 39 40 40 41 41 42 43 44 44 44 45 45 46 46 46 48 49 50 51 52 53 54 55 55 55 56 56 57 57 57 57
38 38 38 38 38 38 38 38 37 37 37 38 38 39 39 40 41 41 42 42 43 43 44 44 44 45 46 47 48 48 48 50 51 52 53 53 53 54 54 54 55 55 55
Wind_Direction
255 255 255 253 252 250 250 250 249 249 248 248 248 247 245 245 246 246 246 246 246 247 248 249 250 250 251 251 252 253 254 254 254 254 255 255 256 257 258 258 257 257 257
256 256 255 253 252 251 250 250 250 249 249 249 248 247 246 245 245 246 246 246 247 247 247 248 250 251 252 253 254 254 255 255 255 255 255 256 256 257 257 257 257 257 258
256 256 255 255 254 253 251 250 250 249 249 249 249 248 248 247 246 246 246 246 246 247 247 248 250 251 251 252 253 254 254 255 256 256 257 256 256 256 256 257 257 258 259
256 256 256 256 255 254 253 252 251 250 249 249 249 249 249 248 248 247 247 247 247 247 247 248 249 251 251 252 253 254 254 255 256 257 257 257 257 256 256 257 258 259 260
257 256 257 256 255 253 253 253 252 250 250 250 250 250 250 250 249 248 248 248 248 248 248 249 250 251 251 252 253 253 255 256 257 257 257 257 257 257 257 257 259 260 260
259 258 258 256 255 255 254 254 253 252 251 251 251 251 251 250 250 249 249 248 248 249 249 250 251 252 253 253 253 254 255 255 256 257 258 258 258 258 259 259 259 260 260
260 259 258 257 257 257 256 254 253 252 251 251 251 251 251 251 251 250 250 249 249 250 250 250 252 252 253 254 254 254 255 256 256 257 257 258 258 259 260 260 260 260 260
261 260 259 258 258 257 257 256 255 253 252 252 251 251 251 251 251 251 250 250 250 250 250 251 252 253 253 254 255 255 256 257 257 257 257 258 259 260 260 261 261 260 259
262 261 260 260 259 258 257 257 256 255 253 253 252 252 252 252 252 252 252 251 250 251 251 252 252 253 254 254 255 256 257 258 258 258 258 259 260 260 260 261 261 261 260
265 264 263 261 260 259 259 258 258 257 255 254 254 254 253 253 253 253 253 253 252 252 252 253 253 254 254 255 256 257 257 258 258 258 259 259 259 260 261 261 262 261 261
268 267 265 263 262 261 261 260 259 258 257 256 255 255 254 254 255 255 255 255 254 253 253 253 254 254 255 256 256 257 257 258 258 259 259 259 260 260 260 261 262 262 262
269 268 266 265 264 263 262 262 261 260 259 258 257 256 256 255 255 255 255 255 255 254 253 253 254 254 256 257 257 257 258 258 259 259 259 259 260 260 260 261 261 262 263
270 269 267 266 266 265 264 263 262 261 261 260 259 258 257 257 256 256 256 256 256 255 254 254 254 254 255 256 257 258 258 258 259 259 260 260 260 260 261 261 261 262 263
271 271 270 269 268 267 265 265 264 263 263 262 261 260 259 258 257 257 256 256 257 256 256 254 254 254 255 256 257 258 258 259 259 259 260 261 261 261 261 262 262 262 263
272 272 271 271 270 269 267 267 266 266 265 265 264 263 261 259 258 258 257 257 256 256 256 255 255 254 254 256 257 257 258 258 259 259 260 260 261 261 261 262 262 262 262
274 274 273 272 271 270 269 268 268 267 267 266 266 265 264 262 260 259 258 258 258 258 257 256 256 255 255 256 256 256 257 258 259 260 261 261 261 261 261 262 262 261 262
276 276 275 273 273 272 271 271 270 269 269 268 267 266 265 263 262 261 260 260 260 259 259 258 257 256 256 257 257 256 257 258 259 259 260 261 261 261 261 261 261 262 262
277 276 275 275 274 273 273 273 272 271 270 269 268 267 266 265 265 264 263 262 261 260 260 259 258 258 258 258 258 258 258 259 259 259 260 261 261 261 261 261 261 261 262
279 278 276 276 276 275 274 274 273 272 272 271 270 269 268 267 267 266 265 264 262 262 262 260 259 258 258 258 259 259 260 260 260 260 260 260 260 260 260 260 260 261 262
280 280 278 277 277 277 276 276 275 273 273 272 272 270 269 268 268 267 266 265 264 263 263 261 260 259 258 258 259 259 260 261 261 261 261 260 260 260 260 261 261 261 261
281 280 279 278 278 278 278 278 277 275 274 273 272 272 270 269 268 267 267 267 266 265 263 262 261 260 259 259 259 259 260 261 261 261 261 261 260 261 261 261 261 261 261
283 282 280 280 279 279 279 278 277 276 275 274 273 273 272 270 268 268 268 268 267 266 264 263 261 260 260 261 261 261 261 261 261 261 261 261 261 261 261 261 261 261 261
284 283 282 282 281 281 281 280 278 277 276 275 274 274 273 272 270 269 269 269 268 268 266 264 262 261 261 263 263 262 262 262 262 262 262 261 261 261 261 261 261 260 260
285 284 283 283 282 282 281 280 279 278 277 276 276 276 274 273 272 272 271 270 269 269 268 266 264 263 264 264 264 264 263 263 263 263 262 262 262 261 261 261 260 260 260
286 286 285 284 283 282 281 280 280 280 279 278 277 277 275 274 274 273 273 271 270 269 269 267 265 264 265 266 266 265 264 264 264 263 262 262 262 262 262 261 260 260 260
287 287 286 284 283 282 281 281 280 280 280 280 279 278 277 275 275 275 274 273 271 270 268 267 265 265 266 267 267 267 267 266 265 264 263 262 263 263 262 261 260 259 258